[[{"header":{"parameterUnit":"m.s-1","parameterCategory":2,"la1":30.2991,"la2":30.254,"lo1":-89.0895,"lo2":-89.0444,"dy":0.0017,"dx":0.0017,"nx":28,"ny":28,"refTime":"2024-08-05T03:00:00:Z","depth":"0","parameterNumber":2,"parameterNumberName":"U-component_of_CURRENTS"},"data":[0,0,0,0,0,0,0,0,0,0,0,0,0,0,0,0,0,0,0,0,0,0,0,0,0,0,0,0,0,0,0,0,0,0,0,0,0,0,0,0,0,0,0,0,0,0,0,0,0,0,0,0,0,0,0,0,0,0,0.3233,0.3233,0,0.3247,0.3247,0.3247,0.3231,0.3231,0.3231,0.3231,0.32,0.32,0.3199,0,0,0,0,0,0,0,0,0,0,0,0,0,0.3185,0.3186,0.3233,0.3233,0.3234,0.3247,0.3247,0.3247,0.3232,0.3231,0.3231,0.323,0.3201,0.32,0.3199,0,0,0,0,0,0,0,0,0,0,0,0,0,0.3201,0.3186,0.3233,0.323,0.323,0.3247,0.3247,0.3247,0.3232,0.3231,0.3231,0.323,0.3201,0.32,0.3199,0.3204,0,0,0.3197,0.3197,0,0,0,0,0,0,0,0,0.32,0.3202,0.323,0.323,0.323,0.324,0.3219,0.3231,0.3232,0.3228,0.3231,0.323,0.3212,0.321,0.321,0.3203,0.3202,0.3197,0.3197,0.3196,0.3196,0,0,0,0,0,0,0,0.3199,0.3201,0.3235,0.323,0.3231,0.3226,0.3227,0.3221,0.3219,0.3228,0.3228,0.3234,0.3211,0.3211,0.3209,0.3201,0.3197,0.3196,0.3196,0.3196,0.3288,0.3291,0,0,0,0,0,0,0.3204,0.32,0.3235,0.3236,0.3217,0.3227,0.3228,0.3235,0.322,0.3219,0.3235,0.3234,0.3213,0.321,0.3208,0.3282,0.3196,0.3195,0.3195,0.3285,0.3288,0.3292,0,0,0,0,0,0,0.3203,0.3207,0.3235,0.3221,0.3224,0.3229,0.3236,0.3235,0.3242,0.3226,0.3223,0.3243,0.3212,0.3209,0.3228,0.3278,0.3195,0.3194,0.3281,0.3286,0.329,0.3385,0,0,0,0,0,0,0.3201,0.3206,0.3218,0.3221,0.3225,0.3262,0.3236,0.3236,0.3248,0.3247,0.3232,0.3229,0.3211,0.3229,0.3227,0.3275,0.3194,0.3278,0.3283,0.3289,0.3378,0.3392,0.3404,0,0,0,0,0,0.32,0.3217,0.3218,0.3223,0.3239,0.3263,0.3266,0.3264,0.3249,0.3265,0.326,0.3229,0.3263,0.323,0.3227,0.3277,0.3275,0.3282,0.3288,0.3373,0.339,0.3404,0,0,0,0,0,0,0.3193,0.3218,0.3219,0.324,0.3259,0.3262,0.3277,0.3272,0.3279,0.3277,0.3252,0.325,0.3293,0.3273,0.3237,0.3324,0.327,0.3276,0.3336,0.3351,0.3364,0.3458,0.3193,0,0,0,0,0,0.3201,0.3227,0.3242,0.3262,0.3273,0.3276,0.3285,0.3287,0.3292,0.3294,0.3287,0.3291,0.3318,0.3322,0.3334,0.3366,0.3449,0.3403,0.3416,0.3426,0.3505,0.3712,0.3752,0.3313,0.3313,0.3313,0,0,0.3196,0.3222,0.323,0.3265,0.3275,0.331,0.328,0.3304,0.334,0.329,0.3331,0.3332,0.3338,0.3387,0.3405,0.3374,0.3579,0.3435,0.3444,0.3518,0.3723,0.3767,0.3806,0.3317,0.3317,0.3316,0,0,0.3219,0.3232,0.3264,0.3288,0.3322,0.3338,0.3349,0.3362,0.3376,0.3413,0.3404,0.3462,0.3451,0.3506,0.3522,0.3619,0.3644,0.359,0.3726,0.3924,0.3964,0.4,0.4094,0.4138,0.3592,0.3592,0.3592,0,0.321,0.3274,0.3276,0.3319,0.3362,0.3355,0.3411,0.3421,0.3441,0.3494,0.3441,0.3555,0.3537,0.3669,0.3699,0.3657,0.3738,0.3655,0.3947,0.3984,0.402,0.4109,0.4156,0.3598,0.3597,0.3596,0.3596,0,0.3267,0.3318,0.3341,0.3407,0.3443,0.3494,0.3519,0.3559,0.3573,0.3607,0.3729,0.3735,0.3826,0.3809,0.3777,0.4007,0.3968,0.3941,0.3913,0.4071,0.4151,0.4199,0.3605,0.3603,0.3602,0.36,0,0,0.326,0.3364,0.3372,0.3459,0.351,0.3568,0.3626,0.3731,0.3826,0.3845,0.3998,0.4048,0.4078,0.4107,0.4087,0.4241,0.4505,0.4201,0.4209,0.4306,0.4898,0.4782,0.4821,0.4536,0.4547,0.4555,0.4828,0,0.332,0.3459,0.3471,0.3614,0.3717,0.3735,0.381,0.3893,0.3953,0.4082,0.4146,0.4255,0.4176,0.4231,0.4387,0.4467,0.4649,0.4432,0.4725,0.4733,0.4624,0.4882,0.4751,0.4981,0.4875,0.4883,0.4889,0,0.3419,0.3506,0.3663,0.3825,0.386,0.3921,0.411,0.4166,0.4306,0.435,0.4481,0.4506,0.4694,0.4618,0.4926,0.4786,0.4899,0.4963,0.4974,0.4894,0.4713,0.4821,0.5072,0.4863,0.4963,0.4957,0.4951,0,0.3564,0.3675,0.3835,0.3879,0.4012,0.409,0.4154,0.4279,0.433,0.4539,0.459,0.4818,0.4884,0.5119,0.5159,0.5105,0.5487,0.5419,0.5439,0.5425,0.5394,0.5361,0.5507,0.5771,0.577,0.5769,0.5769,0,0.3722,0.3857,0.3917,0.4017,0.4154,0.4227,0.4372,0.445,0.4561,0.4636,0.4741,0.4826,0.5027,0.5181,0.5303,0.5483,0.5611,0.5566,0.5554,0.5406,0.5373,0.5247,0.5162,0.5779,0.5777,0.5775,0.5774,0,0.3912,0.3969,0.4124,0.4223,0.4244,0.4348,0.4391,0.4475,0.4585,0.4686,0.4741,0.4878,0.5083,0.5232,0.5561,0.5603,0.5692,0.5865,0.5607,0.5564,0.5384,0.5308,0.54,0.5269,0.6012,0.6011,0.6011,0,0.4052,0.4154,0.4211,0.4222,0.4258,0.4359,0.4386,0.4479,0.4525,0.4681,0.4722,0.4927,0.5028,0.5396,0.5585,0.5845,0.5675,0.5849,0.5769,0.5452,0.5362,0.5142,0.5008,0.5735,0.5732,0.573,0.5729,0,0.4217,0.4208,0.4253,0.4264,0.4286,0.4303,0.4357,0.4374,0.4477,0.4555,0.4652,0.4764,0.5081,0.5268,0.5562,0.5709,0.5577,0.5815,0.563,0.5327,0.4973,0.4807,0.5374,0.5711,0.5713,0.5714,0.5715,0.5716,0.4237,0.4247,0.4229,0.4239,0.424,0.4211,0.417,0.4216,0.4252,0.4293,0.4509,0.4617,0.4983,0.5384,0.5437,0.5465,0.5473,0.5423,0.5407,0.5245,0.4996,0.5466,0.5678,0.5679,0.568,0.5682,0.5683,0,0.4194,0.4183,0.4189,0.414,0.4087,0.4123,0.4093,0.4006,0.3968,0.4125,0.4209,0.4548,0.4772,0.5007,0.5249,0.5108,0.4909,0.4966,0.466,0.459,0.517,0.5024,0.4929,0.493,0.493,0.493,0.493,0.493,0.4149,0.4108,0.4101,0.3973,0.3936,0.378,0.3715,0.3623,0.3668,0.372,0.387,0.409,0.4496,0.4869,0.4836,0.4738,0.4376,0.4237,0.4168,0.4568,0.4607,0.4643,0.4483,0.4277,0.4276,0.3433,0.3426,0.3422]},{"header":{"parameterUnit":"m.s-1","parameterCategory":2,"la1":30.2991,"la2":30.254,"lo1":-89.0895,"lo2":-89.0444,"dy":0.0017,"dx":0.0017,"nx":28,"ny":28,"refTime":"2024-08-05T03:00:00:Z","depth":"0","parameterNumber":3,"parameterNumberName":"V-component_of_CURRENTS"},"data":[0,0,0,0,0,0,0,0,0,0,0,0,0,0,0,0,0,0,0,0,0,0,0,0,0,0,0,0,0,0,0,0,0,0,0,0,0,0,0,0,0,0,0,0,0,0,0,0,0,0,0,0,0,0,0,0,0,0,-0.0237,-0.0238,0,-0.0295,-0.0296,-0.0297,-0.0339,-0.0339,-0.0339,-0.0339,-0.0434,-0.0436,-0.0439,0,0,0,0,0,0,0,0,0,0,0,0,0,-0.0205,-0.0205,-0.0237,-0.0238,-0.0238,-0.0295,-0.0296,-0.0297,-0.0339,-0.0339,-0.0339,-0.0339,-0.0433,-0.0436,-0.0439,0,0,0,0,0,0,0,0,0,0,0,0,0,-0.0239,-0.0205,-0.0237,-0.0263,-0.0266,-0.0295,-0.0296,-0.0298,-0.0339,-0.0339,-0.0339,-0.0339,-0.0432,-0.0436,-0.0439,-0.0461,0,0,-0.0451,-0.0452,0,0,0,0,0,0,0,0,-0.0237,-0.0241,-0.0259,-0.0262,-0.0265,-0.0307,-0.0319,-0.0353,-0.0339,-0.0314,-0.0339,-0.0339,-0.0393,-0.04,-0.0414,-0.0465,-0.047,-0.0451,-0.0453,-0.0455,-0.0456,0,0,0,0,0,0,0,-0.0235,-0.0239,-0.0264,-0.0259,-0.0263,-0.0286,-0.0291,-0.0326,-0.0356,-0.0317,-0.0319,-0.032,-0.0395,-0.0411,-0.0417,-0.0471,-0.0451,-0.0454,-0.0457,-0.0458,-0.0571,-0.0571,0,0,0,0,0,0,-0.0219,-0.0236,-0.0262,-0.0265,-0.0247,-0.0286,-0.0292,-0.0296,-0.0355,-0.0362,-0.032,-0.0322,-0.0404,-0.0413,-0.0421,-0.0443,-0.0455,-0.0458,-0.0461,-0.057,-0.0571,-0.0572,0,0,0,0,0,0,-0.0218,-0.0221,-0.0259,-0.0249,-0.0255,-0.0286,-0.0291,-0.0297,-0.0308,-0.0356,-0.0365,-0.0323,-0.0405,-0.0415,-0.0457,-0.0447,-0.046,-0.0464,-0.0569,-0.057,-0.0571,-0.0491,0,0,0,0,0,0,-0.0217,-0.022,-0.0223,-0.0248,-0.0255,-0.0269,-0.029,-0.0298,-0.0307,-0.031,-0.0362,-0.0371,-0.0406,-0.0451,-0.0461,-0.0452,-0.0466,-0.0568,-0.0569,-0.0571,-0.0493,-0.0489,-0.0486,0,0,0,0,0,-0.0216,-0.0214,-0.0223,-0.0226,-0.0256,-0.0268,-0.0274,-0.0299,-0.0307,-0.031,-0.0353,-0.037,-0.0467,-0.0455,-0.0466,-0.0458,-0.0567,-0.0569,-0.0571,-0.0494,-0.049,-0.0486,0,0,0,0,0,0,-0.0199,-0.0218,-0.0228,-0.0232,-0.0246,-0.0274,-0.0279,-0.0292,-0.0328,-0.0333,-0.0379,-0.0392,-0.0431,-0.046,-0.0445,-0.0499,-0.052,-0.0524,-0.0458,-0.0455,-0.0452,-0.0324,-0.047,0,0,0,0,0,-0.0195,-0.0202,-0.0219,-0.0223,-0.0226,-0.0251,-0.026,-0.0274,-0.0304,-0.0319,-0.0359,-0.0405,-0.0447,-0.0461,-0.0511,-0.0531,-0.0444,-0.0536,-0.0533,-0.053,-0.0436,-0.0264,-0.0232,-0.0577,-0.0577,-0.0577,0,0,-0.0186,-0.0201,-0.0202,-0.022,-0.0234,-0.0234,-0.0258,-0.0265,-0.0266,-0.0325,-0.035,-0.0402,-0.0456,-0.0488,-0.0505,-0.0505,-0.0411,-0.0532,-0.0528,-0.0434,-0.0262,-0.0226,-0.0195,-0.0578,-0.0578,-0.0578,0,0,-0.0161,-0.0185,-0.0174,-0.0187,-0.0202,-0.0221,-0.0217,-0.0244,-0.0257,-0.029,-0.0334,-0.0347,-0.0441,-0.044,-0.0461,-0.0462,-0.0409,-0.052,-0.038,-0.0217,-0.0183,-0.0152,-0.0077,-0.0039,-0.0504,-0.0504,-0.0503,0,-0.0147,-0.0129,-0.0172,-0.0166,-0.0151,-0.0208,-0.0173,-0.0213,-0.0253,-0.021,-0.0292,-0.0308,-0.0395,-0.0335,-0.0368,-0.0442,-0.036,-0.039,-0.0199,-0.0167,-0.0136,-0.0065,-0.0024,-0.05,-0.05,-0.0501,-0.0501,0,-0.0107,-0.0094,-0.0088,-0.0096,-0.01,-0.0081,-0.0122,-0.0124,-0.0154,-0.0152,-0.011,-0.02,-0.016,-0.0246,-0.0324,-0.0168,-0.0191,-0.022,-0.0183,-0.0094,-0.003,0.0011,-0.0495,-0.0496,-0.0497,-0.0498,0,0,-0.0044,-0.005,-0.0044,0.0009,-0.0042,-0.0009,-0.0025,0.0026,0.0121,0.0036,0.0195,0.0057,0.0082,0.0065,-0.0012,0.0083,0.0266,0.0026,0.0033,0.0149,0.0603,0.0439,0.0467,0.0295,0.0304,0.0311,0.0535,0,0.0024,0.0098,0.0052,0.0138,0.02,0.0153,0.0179,0.0205,0.0216,0.033,0.0298,0.037,0.0175,0.0224,0.029,0.0292,0.0392,0.0207,0.0462,0.047,0.0357,0.0517,0.0475,0.0663,0.0575,0.0582,0.0587,0,0.0112,0.0158,0.0271,0.0362,0.0387,0.0414,0.0556,0.0568,0.0663,0.0688,0.0775,0.0753,0.0845,0.0678,0.0818,0.0718,0.0694,0.0674,0.0683,0.0567,0.0389,0.0571,0.0741,0.0449,0.065,0.0645,0.0641,0,0.0286,0.0336,0.0462,0.0478,0.0533,0.061,0.0644,0.0724,0.0804,0.097,0.1082,0.1172,0.1249,0.128,0.113,0.1043,0.1294,0.1172,0.1012,0.0996,0.1035,0.1007,0.1018,0.1359,0.1359,0.1358,0.1358,0,0.0429,0.0536,0.057,0.0648,0.0813,0.0805,0.0999,0.1039,0.1175,0.1337,0.1314,0.1474,0.142,0.1481,0.1348,0.1302,0.1478,0.1124,0.1097,0.1038,0.1009,0.0811,0.0634,0.1366,0.1365,0.1363,0.1362,0,0.0616,0.0636,0.0781,0.0868,0.0905,0.1034,0.1149,0.1286,0.1399,0.1625,0.1695,0.1787,0.1873,0.1755,0.1806,0.1578,0.1388,0.1474,0.134,0.1292,0.081,0.0638,0.0768,0.0604,0.1397,0.1395,0.1393,0,0.073,0.0825,0.0933,0.099,0.1032,0.1187,0.1279,0.139,0.1526,0.18,0.1934,0.2087,0.2203,0.2161,0.1858,0.1684,0.1405,0.1438,0.1249,0.0855,0.0648,0.0573,0.0418,0.1308,0.1306,0.1304,0.1303,0,0.0894,0.0922,0.0995,0.1124,0.123,0.137,0.1523,0.1671,0.1837,0.2054,0.2335,0.2481,0.2414,0.2233,0.1902,0.1717,0.1197,0.1387,0.1109,0.0713,0.0531,0.033,0.0998,0.1287,0.1288,0.129,0.129,0.1291,0.096,0.1022,0.1082,0.1217,0.1339,0.1526,0.169,0.1877,0.2149,0.251,0.2609,0.2903,0.2576,0.2151,0.1764,0.1041,0.1089,0.0805,0.0671,0.0664,0.0392,0.0948,0.1093,0.1094,0.1094,0.1095,0.1095,0,0.0987,0.1037,0.1155,0.1309,0.1473,0.1542,0.1817,0.2014,0.2357,0.2722,0.3003,0.3111,0.2542,0.1971,0.0999,0.0429,0.026,0.0144,0.0061,-0.0038,0.0606,0.0472,0.0336,0.0336,0.0336,0.0337,0.0337,0.0337,0.0978,0.1057,0.1131,0.138,0.152,0.1787,0.197,0.228,0.2592,0.3091,0.3393,0.3614,0.3268,0.1436,0.0141,-0.0177,-0.0583,-0.0612,-0.0825,-0.0423,-0.0371,-0.0322,-0.0488,-0.0824,-0.0825,-0.1399,-0.1405,-0.141]}],[{"header":{"parameterUnit":"m.s-1","parameterCategory":2,"la1":30.2991,"la2":30.254,"lo1":-89.0895,"lo2":-89.0444,"dy":0.0017,"dx":0.0017,"nx":28,"ny":28,"refTime":"2024-08-05T03:00:00:Z","depth":"2","parameterNumber":2,"parameterNumberName":"U-component_of_CURRENTS"},"data":[0,0,0,0,0,0,0,0,0,0,0,0,0,0,0,0,0,0,0,0,0,0,0,0,0,0,0,0,0,0,0,0,0,0,0,0,0,0,0,0,0,0,0,0,0,0,0,0,0,0,0,0,0,0,0,0,0,0,0.2422,0.2423,0,0.2476,0.2476,0.2477,0.2483,0.2482,0.2482,0.2481,0.2503,0.2504,0.2505,0,0,0,0,0,0,0,0,0,0,0,0,0,0.2396,0.2396,0.2422,0.2423,0.2424,0.2476,0.2477,0.2477,0.2483,0.2482,0.2481,0.2481,0.2503,0.2504,0.2505,0,0,0,0,0,0,0,0,0,0,0,0,0,0.2424,0.2396,0.2422,0.2433,0.2434,0.2476,0.2477,0.2477,0.2483,0.2482,0.2481,0.2481,0.2502,0.2504,0.2505,0.2531,0,0,0.251,0.2511,0,0,0,0,0,0,0,0,0.2422,0.2425,0.2431,0.2432,0.2434,0.2472,0.2475,0.2494,0.2483,0.2464,0.2481,0.248,0.249,0.2493,0.2505,0.2532,0.2533,0.251,0.2511,0.2512,0.2513,0,0,0,0,0,0,0,0.242,0.2423,0.2443,0.2432,0.2434,0.246,0.2462,0.2479,0.248,0.2466,0.2466,0.2473,0.2491,0.2503,0.2505,0.2533,0.251,0.2512,0.2513,0.2513,0.2631,0.2633,0,0,0,0,0,0,0.2411,0.2421,0.2442,0.2445,0.2426,0.246,0.2463,0.246,0.2481,0.2484,0.2474,0.2473,0.2501,0.2504,0.2506,0.2595,0.2512,0.2514,0.2515,0.2629,0.2631,0.2633,0,0,0,0,0,0,0.2411,0.2412,0.244,0.2435,0.244,0.2461,0.2459,0.2462,0.2484,0.2487,0.2489,0.2493,0.2501,0.2504,0.254,0.2593,0.2514,0.2516,0.2626,0.2629,0.2632,0.2735,0,0,0,0,0,0,0.2409,0.2412,0.242,0.2434,0.244,0.2469,0.2459,0.2464,0.2489,0.2489,0.2505,0.2505,0.25,0.2538,0.2542,0.2594,0.2517,0.2623,0.2627,0.2631,0.2729,0.2742,0.2753,0,0,0,0,0,0.2408,0.242,0.242,0.2423,0.2446,0.247,0.2476,0.2488,0.2491,0.2505,0.2523,0.2505,0.2566,0.2541,0.2545,0.2599,0.2621,0.2626,0.2631,0.2724,0.2739,0.2752,0,0,0,0,0,0,0.2402,0.2422,0.2422,0.2436,0.2453,0.247,0.2495,0.2499,0.2527,0.2534,0.2531,0.2534,0.2591,0.2577,0.2549,0.2644,0.2592,0.2598,0.2662,0.2676,0.2687,0.2724,0.2518,0,0,0,0,0,0.2407,0.2426,0.244,0.2451,0.2466,0.2484,0.2501,0.2508,0.2528,0.254,0.2556,0.2578,0.2614,0.2628,0.2652,0.2698,0.2722,0.2736,0.2747,0.2757,0.279,0.2875,0.2898,0.2649,0.2649,0.2649,0,0,0.2407,0.2421,0.243,0.2453,0.2473,0.2503,0.2493,0.2524,0.2568,0.2539,0.261,0.2622,0.2637,0.2698,0.2721,0.2691,0.2838,0.2763,0.2772,0.28,0.2883,0.2907,0.2929,0.2653,0.2652,0.2651,0,0,0.2421,0.2432,0.2458,0.2481,0.2516,0.2529,0.254,0.2572,0.2611,0.2661,0.2673,0.2724,0.2749,0.2797,0.2817,0.2907,0.2901,0.29,0.2988,0.307,0.3091,0.3111,0.3165,0.3188,0.2901,0.2901,0.2902,0,0.2424,0.2463,0.2468,0.2504,0.2556,0.2542,0.2603,0.2626,0.2668,0.2738,0.2691,0.2804,0.281,0.2925,0.2955,0.294,0.2968,0.2932,0.3087,0.3107,0.3125,0.3176,0.32,0.2907,0.2906,0.2906,0.2905,0,0.2453,0.2504,0.2527,0.2575,0.2618,0.2669,0.2708,0.2771,0.2803,0.2828,0.2945,0.2951,0.3028,0.3029,0.3018,0.316,0.3133,0.3096,0.3055,0.3157,0.3203,0.3227,0.2915,0.2913,0.2911,0.291,0,0,0.2445,0.2536,0.2549,0.2616,0.2684,0.272,0.283,0.294,0.3037,0.3044,0.3203,0.3224,0.3224,0.3249,0.3245,0.33,0.3443,0.3256,0.3258,0.3316,0.3614,0.3465,0.3476,0.3431,0.3436,0.344,0.3591,0,0.2491,0.2575,0.263,0.2745,0.2813,0.2895,0.2996,0.3087,0.3163,0.3297,0.3328,0.3425,0.3303,0.3365,0.3402,0.3432,0.3513,0.3405,0.3502,0.3506,0.3366,0.3501,0.3219,0.3319,0.3614,0.3618,0.3621,0,0.2539,0.2594,0.2709,0.2888,0.293,0.2994,0.3214,0.3304,0.3471,0.3544,0.3629,0.3644,0.3733,0.3635,0.3702,0.3632,0.3659,0.3659,0.3664,0.3512,0.3402,0.3266,0.3351,0.3661,0.3657,0.3655,0.3652,0,0.2555,0.269,0.2792,0.2838,0.2987,0.3111,0.3216,0.3383,0.349,0.3719,0.3795,0.3882,0.3927,0.3955,0.3864,0.3834,0.3935,0.3899,0.3801,0.3789,0.3564,0.3523,0.4039,0.4039,0.4039,0.4038,0.4038,0,0.2636,0.2717,0.2802,0.2854,0.3006,0.3131,0.3321,0.3464,0.3659,0.3755,0.3893,0.3951,0.4009,0.4025,0.3982,0.3908,0.4016,0.3863,0.384,0.3586,0.3548,0.3845,0.382,0.4044,0.4043,0.4042,0.4041,0,0.2668,0.2714,0.2805,0.2948,0.3016,0.3114,0.334,0.3444,0.3644,0.3801,0.3876,0.4031,0.405,0.4052,0.4118,0.4021,0.4009,0.3981,0.3654,0.359,0.3805,0.3784,0.3961,0.3958,0.3955,0.3952,0.395,0,0.2689,0.2739,0.283,0.2866,0.2942,0.3101,0.32,0.342,0.3503,0.3766,0.3803,0.3959,0.3957,0.3977,0.3908,0.3877,0.3956,0.3624,0.3536,0.3849,0.3809,0.3792,0.3776,0.3284,0.3277,0.3271,0.3266,0,0.2715,0.272,0.277,0.2824,0.2901,0.3004,0.3157,0.3201,0.3419,0.3522,0.3629,0.3693,0.3777,0.3614,0.3605,0.3534,0.3599,0.3502,0.3956,0.3321,0.3215,0.3173,0.3179,0.3212,0.3218,0.3222,0.3225,0.3227,0.2683,0.2688,0.2707,0.2767,0.2844,0.2869,0.2906,0.2965,0.3025,0.3081,0.3295,0.3286,0.3381,0.3201,0.3097,0.3064,0.3315,0.32,0.3218,0.3242,0.311,0.3002,0.2935,0.2939,0.2942,0.2944,0.2947,0,0.2593,0.2627,0.2668,0.2692,0.27,0.2805,0.2847,0.2766,0.2698,0.2738,0.2789,0.2615,0.2553,0.2657,0.2534,0.2557,0.2522,0.2468,0.2416,0.2472,0.2521,0.235,0.1975,0.1972,0.1969,0.1966,0,0,0.2548,0.2499,0.2511,0.2494,0.2574,0.2503,0.2481,0.2333,0.229,0.2104,0.209,0.2301,0.2525,0.2176,0.2177,0.2057,0.2226,0.1971,0.2756,0.2746,0.279,0.2959,0.276,0,0,0,0,0]},{"header":{"parameterUnit":"m.s-1","parameterCategory":2,"la1":30.2991,"la2":30.254,"lo1":-89.0895,"lo2":-89.0444,"dy":0.0017,"dx":0.0017,"nx":28,"ny":28,"refTime":"2024-08-05T03:00:00:Z","depth":"2","parameterNumber":3,"parameterNumberName":"V-component_of_CURRENTS"},"data":[0,0,0,0,0,0,0,0,0,0,0,0,0,0,0,0,0,0,0,0,0,0,0,0,0,0,0,0,0,0,0,0,0,0,0,0,0,0,0,0,0,0,0,0,0,0,0,0,0,0,0,0,0,0,0,0,0,0,0.0018,0.0018,0,-0.0047,-0.0048,-0.0049,-0.0099,-0.01,-0.01,-0.01,-0.0189,-0.0191,-0.0193,0,0,0,0,0,0,0,0,0,0,0,0,0,0.0042,0.0042,0.0018,0.0018,0.0017,-0.0047,-0.0048,-0.0049,-0.0099,-0.01,-0.01,-0.01,-0.0188,-0.019,-0.0193,0,0,0,0,0,0,0,0,0,0,0,0,0,0.0007,0.0042,0.0018,-0.0013,-0.0017,-0.0047,-0.0048,-0.005,-0.0099,-0.01,-0.01,-0.01,-0.0187,-0.019,-0.0193,-0.0207,0,0,-0.0203,-0.0205,0,0,0,0,0,0,0,0,0.0009,0.0006,-0.0008,-0.0011,-0.0015,-0.0063,-0.0072,-0.0103,-0.0099,-0.0071,-0.01,-0.01,-0.0147,-0.0153,-0.0169,-0.0211,-0.0215,-0.0204,-0.0206,-0.0207,-0.0208,0,0,0,0,0,0,0,0.0012,0.0008,-0.0011,-0.0009,-0.0013,-0.0044,-0.0049,-0.0079,-0.0109,-0.0073,-0.0076,-0.0079,-0.0149,-0.0165,-0.0171,-0.0216,-0.0203,-0.0206,-0.0208,-0.021,-0.0281,-0.028,0,0,0,0,0,0,0.0029,0.0011,-0.0009,-0.0012,-0.0,-0.0044,-0.005,-0.005,-0.0108,-0.0116,-0.0079,-0.0081,-0.016,-0.0167,-0.0174,-0.0178,-0.0207,-0.021,-0.0212,-0.0281,-0.0281,-0.028,0,0,0,0,0,0,0.003,0.0028,-0.0006,-0.0,-0.0007,-0.0043,-0.0043,-0.0051,-0.0066,-0.0111,-0.0121,-0.0086,-0.016,-0.017,-0.0195,-0.0182,-0.0211,-0.0214,-0.0281,-0.0281,-0.028,-0.0195,0,0,0,0,0,0,0.0031,0.0029,0.0028,0.0001,-0.0006,-0.0014,-0.0043,-0.0052,-0.0066,-0.007,-0.012,-0.0129,-0.0161,-0.019,-0.0199,-0.0187,-0.0217,-0.0281,-0.0281,-0.0281,-0.0198,-0.0192,-0.0187,0,0,0,0,0,0.0032,0.0041,0.0028,0.0026,-0.0003,-0.0013,-0.0019,-0.0049,-0.0065,-0.0066,-0.0102,-0.0128,-0.0196,-0.0193,-0.0203,-0.0192,-0.0281,-0.0281,-0.0281,-0.0201,-0.0194,-0.0188,0,0,0,0,0,0,0.0051,0.0036,0.0022,0.0025,0.0011,-0.002,-0.0024,-0.0044,-0.0074,-0.0078,-0.0126,-0.0136,-0.0157,-0.0188,-0.0184,-0.0214,-0.0243,-0.0245,-0.0179,-0.0173,-0.0168,-0.0148,-0.022,0,0,0,0,0,0.0056,0.006,0.0039,0.0042,0.0037,0.0006,-0.0005,-0.002,-0.0046,-0.006,-0.0097,-0.0135,-0.0165,-0.0178,-0.0213,-0.0225,-0.0268,-0.0227,-0.0222,-0.0217,-0.0209,-0.0277,-0.0276,-0.028,-0.028,-0.028,0,0,0.0065,0.0057,0.0059,0.0047,0.003,0.004,-0.0002,-0.0006,-0.0003,-0.0064,-0.0079,-0.012,-0.0166,-0.0182,-0.0193,-0.0203,-0.0235,-0.0217,-0.0212,-0.0207,-0.0276,-0.0276,-0.0276,-0.028,-0.028,-0.028,0,0,0.0098,0.0079,0.0096,0.0091,0.0079,0.0063,0.0067,0.0038,0.0017,0.0003,-0.0043,-0.0071,-0.0119,-0.0145,-0.0165,-0.0151,-0.0208,-0.0167,-0.0117,-0.0182,-0.0182,-0.0183,-0.0219,-0.0224,-0.0159,-0.0158,-0.0158,0,0.0108,0.0128,0.01,0.0119,0.0119,0.0081,0.0103,0.0082,0.0048,0.0031,0.001,-0.006,-0.0098,-0.0114,-0.0109,-0.0136,-0.018,-0.0133,-0.0174,-0.0175,-0.0178,-0.0215,-0.0222,-0.0154,-0.0155,-0.0155,-0.0156,0,0.0162,0.0172,0.0183,0.0195,0.0191,0.0204,0.0179,0.016,0.0129,0.0107,0.0072,0.0019,-0.0025,-0.0038,-0.0067,-0.0095,-0.0123,-0.0162,-0.0185,-0.0172,-0.0213,-0.022,-0.0149,-0.015,-0.0151,-0.0152,0,0,0.0194,0.0216,0.022,0.023,0.0232,0.0232,0.0233,0.0218,0.0204,0.0173,0.0147,0.0113,0.0071,0.0046,-0.0001,-0.0043,-0.0088,-0.0101,-0.0107,-0.0127,-0.0221,-0.0192,-0.0199,-0.0144,-0.0146,-0.0147,-0.0237,0,0.0242,0.0291,0.0289,0.0327,0.0345,0.0312,0.0311,0.029,0.0253,0.0213,0.0165,0.0129,0.0107,0.0076,0.0033,-0.0068,-0.0109,-0.0059,-0.024,-0.0244,-0.0213,-0.0207,-0.0175,-0.0249,-0.0245,-0.0246,-0.0247,0,0.0291,0.0317,0.0365,0.0375,0.0377,0.039,0.0362,0.0358,0.0303,0.027,0.0236,0.0181,0.0135,0.009,-0.0034,-0.0007,-0.0103,-0.0174,-0.0181,-0.019,-0.0231,-0.0267,-0.0264,-0.0261,-0.026,-0.0259,-0.0258,0,0.0308,0.0361,0.0396,0.0407,0.0419,0.0415,0.041,0.0372,0.0363,0.03,0.0289,0.0213,0.0177,0.0053,-0.0054,-0.007,-0.0203,-0.0256,-0.0312,-0.0311,-0.0334,-0.0332,-0.0361,-0.0361,-0.0361,-0.0361,-0.0361,0,0.0334,0.0357,0.0408,0.0417,0.0443,0.0442,0.0438,0.0412,0.0388,0.0423,0.0323,0.0351,0.0161,0.0079,-0.0051,-0.0175,-0.02,-0.0296,-0.0334,-0.0301,-0.0295,-0.0352,-0.035,-0.0364,-0.0364,-0.0363,-0.0362,0,0.0305,0.035,0.0395,0.0435,0.0442,0.0454,0.0463,0.0485,0.0449,0.0486,0.0478,0.0427,0.0349,0.017,-0.0026,-0.0146,-0.0293,-0.0337,-0.0261,-0.0288,-0.0365,-0.0358,-0.0435,-0.0435,-0.0435,-0.0435,-0.0435,0,0.0283,0.0312,0.0389,0.043,0.0442,0.0465,0.0503,0.0502,0.0567,0.0591,0.0656,0.0567,0.0591,0.0313,0.0052,-0.0194,-0.0239,-0.0337,-0.0364,-0.0344,-0.0375,-0.0367,-0.036,-0.0364,-0.0363,-0.0363,-0.0362,0,0.0253,0.0295,0.0347,0.0437,0.0504,0.0568,0.0643,0.0722,0.0789,0.0841,0.0983,0.0986,0.072,0.0497,0.0112,-0.0049,-0.0301,-0.0332,-0.0357,-0.0332,-0.028,-0.0308,-0.0304,-0.0357,-0.0358,-0.0358,-0.0358,-0.0359,0.0248,0.0289,0.0395,0.0479,0.0559,0.072,0.0821,0.0992,0.1152,0.1307,0.127,0.127,0.0919,0.0465,0.0148,-0.0223,-0.0225,-0.0363,-0.0364,-0.0366,-0.0324,-0.0272,-0.0339,-0.034,-0.034,-0.034,-0.0341,0,0.0283,0.0342,0.0427,0.0574,0.0711,0.0724,0.0954,0.1136,0.1426,0.1514,0.1602,0.129,0.099,0.0582,0.0041,-0.0273,-0.0314,-0.0366,-0.0363,-0.0365,-0.0367,-0.0326,-0.0342,-0.0343,-0.0344,-0.0344,0,0,0.0312,0.0444,0.051,0.0737,0.0806,0.1038,0.1207,0.1471,0.162,0.177,0.1714,0.16,0.1099,0.0713,0.0271,-0.0036,-0.0118,-0.0087,-0.0052,0.0004,0.0005,-0.0334,-0.0267,0,0,0,0,0]}],[{"header":{"parameterUnit":"m.s-1","parameterCategory":2,"la1":30.2991,"la2":30.254,"lo1":-89.0895,"lo2":-89.0444,"dy":0.0017,"dx":0.0017,"nx":28,"ny":28,"refTime":"2024-08-05T03:00:00:Z","depth":"4","parameterNumber":2,"parameterNumberName":"U-component_of_CURRENTS"},"data":[0,0,0,0,0,0,0,0,0,0,0,0,0,0,0,0,0,0,0,0,0,0,0,0,0,0,0,0,0,0,0,0,0,0,0,0,0,0,0,0,0,0,0,0,0,0,0,0,0,0,0,0,0,0,0,0,0,0,0.1346,0.1347,0,0.1412,0.1413,0.1413,0.1469,0.147,0.147,0.1471,0.152,0.1521,0.1521,0,0,0,0,0,0,0,0,0,0,0,0,0,0.1271,0.1272,0.1346,0.1347,0.1348,0.1412,0.1413,0.1414,0.1469,0.147,0.1471,0.1472,0.152,0.1521,0.1521,0,0,0,0,0,0,0,0,0,0,0,0,0,0.1315,0.1272,0.1345,0.1384,0.1389,0.1412,0.1413,0.1414,0.1469,0.147,0.1471,0.1472,0.152,0.152,0.1521,0.1504,0,0,0.1524,0.1524,0,0,0,0,0,0,0,0,0.1313,0.1318,0.1378,0.1382,0.1387,0.1435,0.1405,0.1444,0.1468,0.1436,0.1471,0.1473,0.149,0.1494,0.1501,0.1506,0.1508,0.1524,0.1525,0.1525,0.1525,0,0,0,0,0,0,0,0.131,0.1315,0.137,0.1379,0.1384,0.14,0.1407,0.1412,0.1454,0.1439,0.1444,0.1454,0.1493,0.15,0.1503,0.1509,0.1524,0.1525,0.1525,0.1526,0.1623,0.1625,0,0,0,0,0,0,0.1304,0.1312,0.1368,0.1372,0.1354,0.1401,0.1409,0.1417,0.1455,0.1462,0.1453,0.1456,0.1498,0.1502,0.1505,0.1566,0.1525,0.1526,0.1526,0.1621,0.1623,0.1626,0,0,0,0,0,0,0.1302,0.1308,0.1365,0.1345,0.1354,0.1401,0.1409,0.1418,0.1457,0.1466,0.1473,0.1488,0.1499,0.1504,0.1543,0.1565,0.1526,0.1527,0.1619,0.1622,0.1625,0.1636,0,0,0,0,0,0,0.1299,0.1307,0.1325,0.1345,0.1355,0.1397,0.1409,0.1418,0.146,0.1466,0.1497,0.1501,0.1501,0.1542,0.1544,0.1565,0.1528,0.1616,0.162,0.1624,0.1633,0.1639,0.1644,0,0,0,0,0,0.1296,0.1305,0.1325,0.1333,0.1374,0.1397,0.1404,0.144,0.1461,0.148,0.151,0.1502,0.1568,0.1544,0.1546,0.1568,0.1614,0.1619,0.1623,0.163,0.1638,0.1644,0,0,0,0,0,0,0.1279,0.1313,0.1335,0.1355,0.1386,0.1408,0.1434,0.1455,0.1493,0.1512,0.1518,0.1524,0.157,0.1574,0.1546,0.1613,0.1594,0.1599,0.1599,0.1606,0.1611,0.1656,0.1529,0,0,0,0,0,0.1285,0.1303,0.1337,0.1355,0.1378,0.1413,0.1434,0.146,0.1489,0.1509,0.1533,0.1564,0.1585,0.16,0.1622,0.1647,0.1673,0.167,0.1676,0.168,0.1722,0.1777,0.1791,0.1641,0.1641,0.1641,0,0,0.128,0.1303,0.1313,0.1354,0.1386,0.1413,0.143,0.1471,0.1496,0.1505,0.156,0.1585,0.16,0.1636,0.1657,0.1643,0.1731,0.1686,0.1689,0.173,0.1784,0.1798,0.1811,0.1644,0.1643,0.1643,0,0,0.1272,0.1309,0.1326,0.1349,0.1404,0.1432,0.145,0.1498,0.1531,0.1575,0.1595,0.1651,0.1671,0.1701,0.171,0.1765,0.1762,0.1763,0.182,0.1871,0.1883,0.1895,0.1914,0.1927,0.176,0.1761,0.1761,0,0.1275,0.1295,0.1334,0.1354,0.1376,0.1442,0.1463,0.1502,0.1557,0.1594,0.1602,0.1697,0.1709,0.1763,0.179,0.1778,0.1796,0.178,0.1877,0.1889,0.1901,0.1918,0.1932,0.1762,0.1761,0.1761,0.1761,0,0.1271,0.1298,0.1312,0.1362,0.1389,0.1423,0.1476,0.1532,0.1586,0.163,0.1719,0.1756,0.1827,0.1824,0.1824,0.1912,0.1892,0.1875,0.1853,0.1916,0.193,0.1945,0.1763,0.1763,0.1762,0.1762,0,0,0.1252,0.1304,0.1312,0.1331,0.1399,0.1418,0.1481,0.1558,0.1618,0.1696,0.1778,0.1841,0.1908,0.193,0.1944,0.1989,0.2071,0.1976,0.1978,0.1984,0.2167,0.2016,0.2017,0.2062,0.2065,0.2068,0.213,0,0.125,0.1278,0.1308,0.1342,0.1362,0.1431,0.1483,0.156,0.1639,0.174,0.1828,0.1927,0.1929,0.1991,0.2037,0.2073,0.2118,0.2055,0.2118,0.212,0.1968,0.2032,0.2079,0.2141,0.2145,0.2147,0.2149,0,0.1226,0.1259,0.129,0.1338,0.1359,0.14,0.1505,0.1556,0.1706,0.178,0.1907,0.1998,0.2126,0.2113,0.2224,0.2182,0.2203,0.2212,0.2213,0.2091,0.1998,0.2076,0.2176,0.2174,0.2172,0.217,0.2168,0,0.1161,0.1227,0.1259,0.1273,0.1359,0.1404,0.1463,0.1585,0.1643,0.1843,0.1926,0.2085,0.217,0.2253,0.2305,0.2286,0.2389,0.2355,0.2233,0.2221,0.2331,0.2318,0.2447,0.2447,0.2447,0.2447,0.2447,0,0.1083,0.1115,0.1249,0.125,0.1315,0.1384,0.1461,0.1549,0.1697,0.1788,0.1965,0.2059,0.2213,0.2293,0.2339,0.2325,0.2424,0.2274,0.2242,0.2328,0.2315,0.2338,0.2325,0.2449,0.2449,0.2448,0.2448,0,0.0944,0.1041,0.1098,0.1228,0.127,0.1316,0.143,0.1491,0.165,0.1777,0.1867,0.2056,0.2177,0.2276,0.2387,0.2327,0.2363,0.2329,0.2412,0.2378,0.2153,0.214,0.2221,0.2216,0.2213,0.221,0.2207,0,0.0866,0.0888,0.1053,0.1101,0.1159,0.1246,0.1304,0.1459,0.1524,0.1757,0.1811,0.1998,0.2118,0.2131,0.2249,0.2321,0.2294,0.2277,0.2239,0.2177,0.2138,0.2131,0.2123,0.2201,0.22,0.2199,0.2198,0,0.0729,0.0828,0.0872,0.0971,0.1058,0.1119,0.1214,0.126,0.1462,0.1615,0.1747,0.1862,0.1956,0.2055,0.21,0.2153,0.228,0.2237,0.2245,0.221,0.2153,0.2117,0.2114,0.2185,0.2187,0.2188,0.2189,0,0.0664,0.0673,0.0767,0.0844,0.0925,0.0981,0.105,0.1156,0.1253,0.1531,0.1566,0.1776,0.193,0.1967,0.203,0.2055,0.2041,0.1972,0.1994,0.201,0.1916,0.1811,0.1736,0,0,0,0,0,0.0589,0.0587,0.0631,0.0721,0.078,0.0847,0.0985,0.1079,0.129,0.134,0.1456,0.1576,0.1704,0.1796,0.1787,0.1939,0.2035,0.1918,0.1961,0.2112,0.2127,0.2037,0,0,0,0,0,0,0.0547,0.0566,0.059,0.0594,0.0628,0.0701,0.0801,0.0957,0.0991,0.1214,0.1285,0.1455,0.1588,0.1686,0.1745,0.1776,0.1767,0.2043,0.2039,0.2103,0.2117,0.2129,0.2042,0,0,0,0,0]},{"header":{"parameterUnit":"m.s-1","parameterCategory":2,"la1":30.2991,"la2":30.254,"lo1":-89.0895,"lo2":-89.0444,"dy":0.0017,"dx":0.0017,"nx":28,"ny":28,"refTime":"2024-08-05T03:00:00:Z","depth":"4","parameterNumber":3,"parameterNumberName":"V-component_of_CURRENTS"},"data":[0,0,0,0,0,0,0,0,0,0,0,0,0,0,0,0,0,0,0,0,0,0,0,0,0,0,0,0,0,0,0,0,0,0,0,0,0,0,0,0,0,0,0,0,0,0,0,0,0,0,0,0,0,0,0,0,0,0,0.0124,0.0123,0,0.0082,0.0082,0.0081,0.0046,0.0045,0.0045,0.0045,0.0004,0.0003,0.0002,0,0,0,0,0,0,0,0,0,0,0,0,0,0.0137,0.0137,0.0124,0.0123,0.0123,0.0082,0.0082,0.0081,0.0046,0.0045,0.0045,0.0045,0.0004,0.0003,0.0002,0,0,0,0,0,0,0,0,0,0,0,0,0,0.0116,0.0137,0.0124,0.0101,0.0099,0.0082,0.0082,0.0081,0.0046,0.0045,0.0045,0.0044,0.0005,0.0003,0.0002,0.0005,0,0,-0.0001,-0.0002,0,0,0,0,0,0,0,0,0.0118,0.0116,0.0105,0.0102,0.01,0.0069,0.0071,0.0056,0.0046,0.0065,0.0045,0.0044,0.0027,0.0024,0.0016,0.0003,0.0001,-0.0001,-0.0002,-0.0003,-0.0003,0,0,0,0,0,0,0,0.0119,0.0117,0.0107,0.0104,0.0101,0.0081,0.0077,0.0068,0.0049,0.0063,0.0061,0.0058,0.0025,0.0017,0.0015,0.0,-0.0001,-0.0003,-0.0003,-0.0004,-0.0018,-0.0018,0,0,0,0,0,0,0.0128,0.0119,0.0108,0.0105,0.0109,0.0081,0.0077,0.0079,0.0049,0.0044,0.0058,0.0056,0.0019,0.0016,0.0013,0.0036,-0.0003,-0.0004,-0.0004,-0.0018,-0.0018,-0.0018,0,0,0,0,0,0,0.0129,0.0128,0.011,0.0111,0.0108,0.0082,0.0083,0.0078,0.0071,0.0045,0.0039,0.0057,0.0019,0.0015,0.0018,0.0033,-0.0004,-0.0005,-0.0019,-0.0018,-0.0018,0.0068,0,0,0,0,0,0,0.013,0.0129,0.0131,0.0112,0.0108,0.0109,0.0084,0.0078,0.007,0.0068,0.0042,0.0037,0.0018,0.002,0.0017,0.0031,-0.0006,-0.0019,-0.0019,-0.0018,0.0065,0.0072,0.0077,0,0,0,0,0,0.013,0.0143,0.0132,0.013,0.0113,0.011,0.0106,0.0085,0.0071,0.0075,0.0062,0.0038,0.002,0.002,0.0016,0.003,-0.002,-0.0019,-0.0018,0.0062,0.007,0.0077,0,0,0,0,0,0,0.0148,0.014,0.0128,0.0136,0.0126,0.0104,0.0105,0.009,0.0081,0.008,0.0052,0.0047,0.0053,0.0028,0.0027,0.0025,-0.0007,-0.0007,0.0055,0.0062,0.0068,0.0055,-0.0007,0,0,0,0,0,0.0155,0.0166,0.0147,0.0156,0.0151,0.0128,0.0122,0.0111,0.01,0.0095,0.008,0.0061,0.0052,0.0048,0.0035,0.004,-0.0013,0.0041,0.0047,0.0053,0.0037,-0.003,-0.0031,-0.0015,-0.0015,-0.0015,0,0,0.0166,0.0163,0.0169,0.0162,0.015,0.0156,0.0124,0.0124,0.0134,0.0094,0.0105,0.0086,0.0059,0.0066,0.0065,0.0048,0.0026,0.0053,0.0059,0.0039,-0.0029,-0.0031,-0.0033,-0.0015,-0.0015,-0.0015,0,0,0.0197,0.0189,0.0205,0.0204,0.0194,0.0181,0.0184,0.0168,0.0163,0.0173,0.0145,0.0133,0.0124,0.0104,0.0094,0.0122,0.0063,0.0119,0.014,0.0077,0.0075,0.0072,0.003,0.0023,0.0121,0.0121,0.0121,0,0.0206,0.0225,0.021,0.0224,0.0231,0.0197,0.0216,0.0209,0.0199,0.0196,0.0187,0.0154,0.0139,0.013,0.0142,0.0136,0.0092,0.0122,0.0085,0.0081,0.0077,0.0033,0.0024,0.0125,0.0125,0.0124,0.0124,0,0.0248,0.0262,0.0273,0.0283,0.0289,0.0301,0.029,0.0292,0.0281,0.0264,0.0254,0.0224,0.0197,0.0196,0.0182,0.015,0.0128,0.0105,0.0069,0.0081,0.0034,0.0023,0.0131,0.013,0.0128,0.0127,0,0,0.0268,0.0295,0.0299,0.032,0.0322,0.0336,0.0352,0.035,0.0356,0.033,0.0325,0.0304,0.0264,0.0247,0.0218,0.0166,0.0118,0.0127,0.0121,0.0089,-0.0014,0.0004,-0.0007,0.0086,0.0084,0.0082,-0.0025,0,0.0299,0.0345,0.0351,0.04,0.0421,0.0411,0.0434,0.0431,0.0413,0.04,0.0344,0.0334,0.0291,0.0285,0.0221,0.0142,0.0088,0.015,-0.0027,-0.0032,-0.0014,-0.002,0.0076,-0.0034,-0.0036,-0.0038,-0.004,0,0.0334,0.0363,0.0417,0.0465,0.0474,0.0502,0.0525,0.0543,0.0509,0.0492,0.0441,0.0391,0.032,0.0284,0.0124,0.0163,0.0077,0.0009,0.0003,-0.0026,-0.0035,-0.0057,-0.0061,-0.0059,-0.0058,-0.0056,-0.0055,0,0.0364,0.0411,0.0462,0.0479,0.0523,0.0551,0.0574,0.0569,0.0596,0.0546,0.0541,0.043,0.0392,0.0248,0.0111,0.011,-0.0071,-0.0089,-0.0156,-0.0155,-0.0178,-0.0174,-0.0212,-0.0212,-0.0212,-0.0212,-0.0211,0,0.0404,0.0447,0.0483,0.0517,0.0588,0.0602,0.0669,0.0664,0.0667,0.0693,0.0592,0.0569,0.0377,0.0258,0.0115,-0.0052,-0.0074,-0.0164,-0.019,-0.0134,-0.0125,-0.0184,-0.0179,-0.0216,-0.0215,-0.0214,-0.0213,0,0.0457,0.0469,0.0537,0.0588,0.061,0.0671,0.0755,0.0798,0.078,0.0804,0.0795,0.0668,0.0503,0.0315,0.0089,-0.0024,-0.0193,-0.0242,-0.0154,-0.0171,-0.0238,-0.0227,-0.0343,-0.0344,-0.0344,-0.0345,-0.0345,0,0.0492,0.053,0.0602,0.0647,0.0683,0.077,0.0833,0.0858,0.0898,0.0866,0.087,0.0729,0.0622,0.0314,0.0107,-0.017,-0.0203,-0.0285,-0.0286,-0.0242,-0.0256,-0.0244,-0.0234,-0.0345,-0.0345,-0.0346,-0.0346,0,0.0567,0.0591,0.0648,0.0733,0.0807,0.0902,0.0978,0.1008,0.1029,0.1017,0.0932,0.0767,0.058,0.0324,0.0119,-0.0081,-0.0236,-0.029,-0.0291,-0.0292,-0.0246,-0.0256,-0.0245,-0.0347,-0.0347,-0.0347,-0.0347,0,0.0625,0.0675,0.0735,0.0814,0.0909,0.0986,0.1028,0.1058,0.1089,0.1033,0.1005,0.0792,0.0669,0.0371,0.0177,-0.0015,-0.0072,-0.0132,-0.0143,-0.0144,-0.0055,0.0036,-0.001,0,0,0,0,0,0.0673,0.0723,0.0804,0.0882,0.098,0.1027,0.1103,0.1129,0.1133,0.1089,0.1047,0.0872,0.0567,0.0424,0.0233,0.0159,-0.0108,-0.007,-0.0182,-0.0354,-0.0352,-0.0281,0,0,0,0,0,0,0.0701,0.0784,0.081,0.0922,0.0983,0.1092,0.1137,0.114,0.1105,0.1073,0.0908,0.0833,0.053,0.0678,0.0232,0.0172,0.0077,-0.0213,-0.0217,-0.0355,-0.0353,-0.0352,-0.0278,0,0,0,0,0]}]]